Weather History for LFPV - November, 2012

Change the Weather History Date:

Thursday, November 22, 2012

  Actual Average Record
Temperature  
Mean Temperature 42 °F -  
Max Temperature 46 °F 44 °F 60 °F (2011)
Min Temperature 39 °F 36 °F 21 °F (1998)
Degree Days  
Heating Degree Days 22    
Moisture  
Dew Point 41 °F    
Average Humidity 95    
Maximum Humidity 100    
Minimum Humidity 87    
Precipitation  
Precipitation 0.00 in - - ()
Sea Level Pressure  
Sea Level Pressure 30.14 in    
Wind  
Wind Speed 6 mph ()    
Max Wind Speed 13 mph    
Max Gust Speed -    
Visibility 4.0 miles    
Events Fog    
Averages and records for this station are not official NWS values.
T = Trace of Precipitation, MM = Missing Value Source: Averaged Metar Reports

Daily Weather History Graph

Daily Weather History Graph

Search for Another Location

Airport or City:

Trip Planner

Search our weather history database for the weather conditions in past years. The results will help you decide how hot, cold, wet, or windy it might be!

Date:

Astronomy

Nov. 22, 2012 Rise Set
Actual Time 8:10 AM CET 5:03 PM CET
Civil Twilight 7:35 AM CET 5:38 PM CET
Nautical Twilight 6:56 AM CET 6:17 PM CET
Astronomical Twilight 6:19 AM CET 6:55 PM CET
Moon 2:06 PM CET (11/22) 1:48 AM CET (11/22)
Length of Visible Light 10h 03m
Length of Day
8h 52m
Waxing Gibbous, 69% of the Moon is Illuminated
Nov 22
Waxing Gibbous
Nov 28
Full
Dec 6
Last Quarter
Dec 13
New
Dec 20
First Quarter

Hourly Weather History & Observations

Time (CET) Temp. Windchill Dew Point Humidity Pressure Visibility Wind Dir Wind Speed Gust Speed Precip Events Conditions
12:00 AM 42.8 °F 41.1 °F 41.0 °F 93% 30.15 in 6.2 mi SSW 3.5 mph - N/A   Unknown
12:30 AM 42.8 °F 40.1 °F 39.2 °F 87% 30.15 in 6.2 mi SSW 4.6 mph - N/A   Unknown
1:00 AM 42.8 °F 40.1 °F 41.0 °F 93% 30.15 in 6.2 mi SW 4.6 mph - N/A   Unknown
1:30 AM 42.8 °F 41.1 °F 41.0 °F 93% 30.15 in 6.2 mi SW 3.5 mph - N/A   Unknown
2:00 AM 42.8 °F 40.1 °F 41.0 °F 93% 30.18 in 6.2 mi SW 4.6 mph - N/A   Unknown
2:30 AM 41.0 °F 39.0 °F 39.2 °F 93% 30.15 in 6.2 mi SSW 3.5 mph - N/A   Unknown
3:00 AM 41.0 °F 37.1 °F 39.2 °F 93% 30.18 in 6.2 mi SW 5.8 mph - N/A   Unknown
3:30 AM 41.0 °F 39.0 °F 39.2 °F 93% 30.18 in 6.2 mi South 3.5 mph - N/A   Unknown
4:00 AM 41.0 °F 38.0 °F 39.2 °F 93% 30.18 in 4.3 mi South 4.6 mph - N/A   Unknown
4:30 AM 41.0 °F 38.0 °F 39.2 °F 93% 30.18 in 0.2 mi South 4.6 mph - N/A Fog Fog
5:00 AM 39.2 °F 35.0 °F 39.2 °F 100% 30.18 in 0.1 mi SSW 5.8 mph - N/A Fog Fog
5:30 AM 39.2 °F 34.2 °F 39.2 °F 100% 30.18 in 0.1 mi South 6.9 mph - N/A Fog Fog
6:00 AM 39.2 °F 35.0 °F 39.2 °F 100% 30.18 in 0.1 mi South 5.8 mph - N/A Fog Fog
6:30 AM 39.2 °F 35.9 °F 39.2 °F 100% 30.18 in 0.1 mi South 4.6 mph - N/A Fog Fog
7:00 AM 39.2 °F 35.9 °F 39.2 °F 100% 30.18 in 0.1 mi South 4.6 mph - N/A Fog Fog
7:30 AM 39.2 °F 33.6 °F 39.2 °F 100% 30.18 in 0.1 mi South 8.1 mph - N/A Fog Fog
8:00 AM 39.2 °F 35.9 °F 39.2 °F 100% 30.18 in 0.1 mi South 4.6 mph - N/A Fog Fog
8:30 AM 39.2 °F 35.9 °F 39.2 °F 100% 30.18 in 0.1 mi South 4.6 mph - N/A Fog Fog
9:00 AM 39.2 °F 35.9 °F 39.2 °F 100% 30.18 in 0.1 mi South 4.6 mph - N/A Fog Fog
9:30 AM 41.0 °F 37.1 °F 41.0 °F 100% 30.21 in 0.1 mi South 5.8 mph - N/A Fog Fog
10:00 AM 41.0 °F 36.4 °F 41.0 °F 100% 30.21 in 0.2 mi South 6.9 mph - N/A Fog Fog
10:30 AM 41.0 °F 35.8 °F 41.0 °F 100% 30.21 in 0.2 mi South 8.1 mph - N/A Fog Fog
11:00 AM 41.0 °F 35.8 °F 41.0 °F 100% 30.21 in 0.1 mi South 8.1 mph - N/A Fog Fog
11:30 AM 42.8 °F 38.6 °F 41.0 °F 93% 30.18 in 0.7 mi SSE 6.9 mph - N/A   Mist
12:00 PM 42.8 °F 37.5 °F 42.8 °F 100% 30.18 in 0.9 mi SSE 9.2 mph - N/A   Mist
12:30 PM 42.8 °F 38.0 °F 41.0 °F 93% 30.18 in - SSE 8.1 mph - N/A Fog Fog
1:00 PM 42.8 °F 37.0 °F 42.8 °F 100% 30.15 in 5.6 mi South 10.4 mph - N/A   Unknown
1:30 PM 44.6 °F 39.7 °F 42.8 °F 93% 30.15 in 6.2 mi South 9.2 mph - N/A   Overcast
2:00 PM 44.6 °F 38.8 °F 42.8 °F 93% 30.12 in 6.2 mi South 11.5 mph - N/A   Overcast
2:30 PM 44.6 °F 38.4 °F 42.8 °F 93% 30.12 in 6.2 mi South 12.7 mph - N/A   Overcast
3:00 PM 46.4 °F 41.5 °F 44.6 °F 93% 30.12 in 6.2 mi SSE 10.4 mph - N/A   Overcast
4:30 PM 46.4 °F 40.7 °F 42.8 °F 87% 30.09 in 6.2 mi South 12.7 mph - N/A   Overcast
5:00 PM 46.4 °F 40.7 °F 42.8 °F 87% 30.09 in 6.2 mi South 12.7 mph - N/A   Mostly Cloudy
5:30 PM 44.6 °F 38.8 °F 42.8 °F 93% 30.09 in 6.2 mi South 11.5 mph - N/A   Overcast
6:00 PM 44.6 °F 39.2 °F 42.8 °F 93% 30.09 in 6.2 mi South 10.4 mph - N/A   Overcast
6:30 PM 44.6 °F 38.4 °F 42.8 °F 93% 30.09 in 6.2 mi SSE 12.7 mph - N/A   Overcast
7:00 PM 44.6 °F 38.8 °F 41.0 °F 87% 30.06 in 6.2 mi SSE 11.5 mph - N/A   Overcast
7:30 PM 44.6 °F 39.2 °F 41.0 °F 87% 30.06 in 6.2 mi SSE 10.4 mph - N/A   Overcast
8:00 PM 42.8 °F 37.5 °F 41.0 °F 93% 30.06 in 6.2 mi SSE 9.2 mph - N/A   Overcast
8:30 PM 42.8 °F 37.0 °F 41.0 °F 93% 30.06 in 6.2 mi SSE 10.4 mph - N/A   Mostly Cloudy
9:00 PM 42.8 °F 36.6 °F 41.0 °F 93% 30.04 in 6.2 mi SSE 11.5 mph - N/A   Overcast
9:30 PM 42.8 °F 36.6 °F 41.0 °F 93% 30.04 in 6.2 mi SSE 11.5 mph - N/A   Overcast
10:00 PM 42.8 °F 37.0 °F 41.0 °F 93% 30.04 in 5.6 mi SSE 10.4 mph - N/A   Overcast
10:30 PM 42.8 °F 38.0 °F 41.0 °F 93% 30.04 in 6.2 mi SSE 8.1 mph - N/A   Mostly Cloudy
11:00 PM 42.8 °F 38.0 °F 41.0 °F 93% 30.04 in 6.2 mi SSE 8.1 mph - N/A   Mostly Cloudy
11:30 PM 42.8 °F 37.5 °F 41.0 °F 93% 30.04 in 6.2 mi SSE 9.2 mph - N/A   Mostly Cloudy